Flag for Switzerland Weather past 2 weeks in Zug, Zug, Switzerland

Now
62 °F

Cool.


Feels Like: 62 °F
Forecast: 59 / 86 °F
Wind: 3 mph from Southeast

Location: Altdorf

Current Time: Aug 4, 2015 at 7:32:16 AM

Latest Report: Aug 4, 2015 at 6:00 AM


Visibility: N/A

Pressure: 29.97 "Hg

Humidity: 88%

Dew point: 58 °F

Location of ZugLocation

Historic Weather in Zug — Graph

°F

Zug temperature yesterday

Maximum temperature yesterday: 82 °F (at 5:00 PM)
Minimum temperature yesterday: 59 °F (at 6:00 AM)
Average temperature yesterday: 71 °F

Past Weeks' High & Low Weather Summary

 TemperatureHumidityPressure
High87 °F (Jul 22, 2:00 PM)98% (Jul 20, 6:00 AM)30.11 "Hg (Jul 20, 6:00 AM)
Low49 °F (Jul 31, 7:00 AM)45% (Jul 21, 6:00 PM)29.66 "Hg (Jul 24, 5:00 PM)
Average67 °F74%29.94 "Hg
* Reported Jul 20 6:00 AM — Aug 4 5:00 AM, Zug, Weather by CustomWeather, © 2015

Note: Actual official high and low records may vary slightly from our data, if they occured in-between our weather recording intervals... More about our weather records

Advertising

Zug weather history for previous 24 hours

 ConditionsComfort  
Time TempWeatherWind HumidityBarometerVisibility
5:00 AM
Tue, Aug 4
63 °FPassing clouds.2 mph85%29.97 "Hg19 mi
4:00 AM63 °FMild.3 mph88%29.98 "HgN/A
3:00 AM64 °FMild.3 mph87%29.99 "HgN/A
2:00 AM66 °FPassing clouds.2 mph82%29.98 "Hg19 mi
1:00 AM64 °FMild.2 mph88%29.99 "HgN/A
12:00 AM67 °FMild.No wind81%29.98 "HgN/A
10:00 PM
Mon, Aug 3
71 °FMild.2 mph74%29.98 "HgN/A
9:00 PM75 °FMild.3 mph64%29.97 "HgN/A
8:00 PM74 °FPassing clouds.2 mph68%29.96 "Hg19 mi
7:00 PM79 °FWarm.No wind58%29.94 "HgN/A
6:00 PM82 °FWarm.7 mph51%29.93 "HgN/A
5:00 PM82 °FPassing clouds.7 mph53%29.94 "Hg22 mi
4:00 PM82 °FWarm.8 mph52%29.96 "HgN/A
3:00 PM82 °FWarm.14 mph53%29.97 "HgN/A
2:00 PM80 °FPassing clouds.7 mph56%29.99 "Hg22 mi
1:00 PM77 °FWarm.5 mph60%30.01 "HgN/A
12:00 PM74 °FMild.7 mph62%30.03 "HgN/A
11:00 AM72 °FPassing clouds.5 mph70%30.05 "Hg19 mi
10:00 AM71 °FMild.1 mph63%30.06 "HgN/A
9:00 AM67 °FMild.5 mph76%30.08 "HgN/A
8:00 AM63 °FScattered clouds.3 mph85%30.09 "Hg19 mi
7:00 AM60 °FCool.No wind91%30.08 "HgN/A
Weather by CustomWeather, © 2015

See weather overviewHow to use our weather pages